Regional Weather Roundup
Issued by NWS Upton, NY

Current Version | Previous Version | Graphics & Text | Print | Product List | Glossary Off
Versions: 1 2 3 4 5 6 7 8 9 10 11 12 13 14 15 16 17 18 19 20 21 22 23 24 25 26 27

000
ASUS41 KOKX 241705
RWROKX

REGIONAL WEATHER ROUNDUP
NATIONAL WEATHER SERVICE NEW YORK NY
100 PM EDT SUN JUL 24 2016

NOTE: "FAIR" INDICATES FEW OR NO CLOUDS BELOW 12,000 FEET WITH NO
SIGNIFICANT WEATHER AND/OR OBSTRUCTIONS TO VISIBILITY.

NYZ071-072-176-178-NJZ106-104-241800-
NEW YORK CITY METRO AREA

CITY           SKY/WX    TMP DP  RH WIND       PRES   REMARKS
Central Park   CLOUDY    91  59  33 NW3       30.00S HX  90
LaGuardia APRT CLOUDY    90  59  35 NW6       29.96S
Kennedy INTL   PTSUNNY   85  61  44 S12       29.98S
Newark/Liberty PTSUNNY   92  55  28 N7G21     29.96F HX  90
BRNX BOT. GARD   N/A     90  57  33 N6        29.99R
Wall St Helipt CLOUDY    88  66  48 S7        29.98S HX  90
Teterboro      CLOUDY    92  56  29 NW10G22   29.95F HX  90
$$

NYZ177-179-078>081-241800-
LONG ISLAND NEW YORK

CITY           SKY/WX    TMP DP  RH WIND       PRES   REMARKS
FARMINGDALE    MOSUNNY   88  59  37 N9G20     29.97F
ISLIP          PTSUNNY   89  61  38 N10       29.96F
SHIRLEY        CLOUDY    88  59  37 W8        29.97F
RIVERHEAD      NOT AVBL
WESTHAMPTON    PTSUNNY   82  61  48 S8        29.99S
SOUTHAMPTON      N/A     77  66  69 SW8       29.94S
BRIDGEHAMPTON    N/A     88  64  45 E1        29.96F
EAST HAMPTON   FAIR      84  59  42 W7        29.96F
MONTAUK POINT    N/A     83  62  49 SW6       29.98S
$$

NYZ052-065-067-241800-
HUDSON VALLEY

CITY           SKY/WX    TMP DP  RH WIND       PRES   REMARKS
WHITE PLAINS   CLOUDY    88  58  36 NW7       29.98S
NEWBURGH       SUNNY     88  63  42 NW9       29.99F
MONTGOMERY     MOSUNNY   92  60  34 NW9G18    29.97F HX  91
POUGHKEEPSIE   MOSUNNY   88  58  36 CALM      29.97S
ALBANY         PTSUNNY   83  63  50 N10       29.99F
$$

NJZ001-105-106-008-010-013-015-019>022-104-241800-
NEW JERSEY

CITY           SKY/WX    TMP DP  RH WIND       PRES   REMARKS
NEWARK/LIBERTY PTSUNNY   92  55  28 N7G21     29.96F HX  90
TETERBORO      CLOUDY    92  56  29 NW10G22   29.95F HX  90
CALDWELL       PTSUNNY   90  58  33 W7        29.97F
MORRISTOWN     PTSUNNY   88  59  37 NW5       29.98F
SOMERVILLE     PTSUNNY   91  62  37 CALM      29.97S HX  91
SUSSEX         CLOUDY    90  57  32 VRB6      29.99F
ANDOVER          N/A     87  60  40 CALM      30.00F
TRENTON        MOSUNNY   90  63  40 VRB6      29.99S HX  91
MILLVILLE      PTSUNNY   88  65  46 SE7       30.01R HX  90
ATLANTIC CITY  MOSUNNY   85  62  46 E7        30.01R
WRIGHTSTOWN    MOSUNNY   90  59  35 VRB1      29.97R
TOMS RIVER     MOSUNNY   89  66  46 E9        30.00R HX  91
BELMAR         MOSUNNY   86  63  45 SE10      30.00S
$$

PAZ047>061-062-071-241800-
EASTERN PENNSYLVANIA

CITY           SKY/WX    TMP DP  RH WIND       PRES   REMARKS
PHILADELPHIA   PTSUNNY   93  60  33 S7        30.00R HX  93
ALLENTOWN      MOSUNNY   93  61  34 SW8       30.00S HX  93
SCRANTON       MOSUNNY   90  57  32 W13       30.01F
$$

CTZ002-004>006-009-010-012-RIZ004-006-007-MAZ004-011-015-241800-
SOUTHERN NEW ENGLAND
 IN CT

CITY           SKY/WX    TMP DP  RH WIND       PRES   REMARKS
BRADLEY INTL   PTSUNNY   90  57  32 NW13      29.95S
HARTFORD       MOSUNNY   90  59  35 NW10      29.95S
DANBURY        MOSUNNY   87  57  35 NW13      29.99F
WTRBRY/OXFORD  PTSUNNY   84  55  37 NW9G20    30.01F
BRIDGEPORT     MOSUNNY   82  62  50 S9        29.97S
MERIDEN        MOSUNNY   90  57  32 MISG      29.96F
NEW HAVEN      PTSUNNY   83  63  50 S12       29.97F
CHESTER        FAIR      84  59  42 NW5G13    29.98S
GROTON         MOSUNNY   83  64  52 SW12      29.96R
WILLIMANTIC    NOT AVBL

 IN RI

CITY           SKY/WX    TMP DP  RH WIND       PRES   REMARKS
PROVIDENCE     PTSUNNY   84  60  44 W9        29.95S
BLOCK ISLAND   MOSUNNY   78  63  59 SW9       29.98R
WESTERLY       SUNNY     83  60  45 SW12G23   29.96S

 IN MA

CITY           SKY/WX    TMP DP  RH WIND       PRES   REMARKS
BOSTON         CLOUDY    88  56  33 NW9       29.92S
WORCESTER      MOSUNNY   79  57  46 W8        29.99S
WESTFIELD      MOSUNNY   88  56  33 NW8       29.96S
PROVINCETOWN   SUNNY     78  63  59 NW7       29.95S
NANTUCKET      SUNNY     77  66  68 VRB6      29.96R
$$

ANZ330-335-338-340-345-350-353-355-241800-
COASTAL MARINE OBSERVATIONS


STATION/POSITION TIME  SKY/WX   TEMP    WIND        PRES    VSBY  WAVE
                                AIR SEA DIR/SP/G                  HT/PER
                 (UTC)          (F)     (DEG/KT/KT) (MB)    (MI)  (FT/S)
NY HARB ENTRANCE 1550            77 74  200/  6/  6 1015.2          2/ 7
20S FIRE ISLAND  1550            75 74   90/  2/  4 1015.3          2/ 6
GREAT SOUTH BAY  1600            77 81  180/  8/ 10   N/A
23 SSW MONTAUK P 1550            73 73  250/  8/  8 1015.6          2/ 6
15 E BARNEGAT LI 1622               77                N/A           2/ 6
HUDSON CANYON    1550            77 77              1015.6          3/ 6
KINGS POINT      1600            84 72              1014.7
EXECUTION ROCKS  1600            79      80/  4/  6   N/A
CENTRAL LI SOUND 1600            75 74  230/ 10/ 12   N/A           1
EASTERN LI SOUND 1600            73 70  220/ 10/ 12   N/A
ROBBINS REEF     1606            81     170/ 11/ 12 1014.4
$$


>>>>>>>>>>>>>>>>>>>>>>>>>>>> KEY <<<<<<<<<<<<<<<<<<<<<<<<<<<
>                                                          <
>     SKY/WX - SKY CONDITION/PRESENT WEATHER               <
>     TMP    - TEMPERATURE IN FAHRENHEIT                   <
>     DP     - DEWPOINT IN FAHRENHEIT                      <
>     RH     - RELATIVE HUMIDITY IN PERCENT                <
>     WIND   - DIRECTION AND SPEED IN MPH                  <
>     PRES   - MEAN SEA LEVEL PRESSURE IN INCHES OF HG     <
>     WCI    - WIND CHILL INDEX                            <
>     VSB    - VISIBILITY IN MILES                         <
>     HX     - HEAT INDEX                                  <
>     TC     - TEMPERATURE IN CELSIUS                      <
>     VRB    - VARIABLE WIND DIRECTION                     <
>                                                          <
>>>>>>>>>>>>>>>>>>>>>>>>>>>> KEY <<<<<<<<<<<<<<<<<<<<<<<<<<<






USA.gov is the U.S. government's official web portal to all federal, state and local government web resources and services.